Time,TemperatureF,DewpointF,PressureIn,WindDirection,WindDirectionDegrees,WindSpeedMPH,WindSpeedGustMPH,Humidity,HourlyPrecipIn,Conditions,Clouds,dailyrainin,SoftwareType,DateUTC
2013-02-03 00:01:00,12.9,8.2,29.94,SW,224,0.0,0.0,81,0.00,,,0.00,WeatherLinkWUIModule,2013-02-03 05:01:00,
2013-02-03 00:11:00,12.8,8.1,29.94,SW,224,0.0,0.0,81,0.00,,,0.00,WeatherLinkWUIModule,2013-02-03 05:11:00,
2013-02-03 00:21:00,12.8,8.3,29.94,SW,224,0.0,0.0,82,0.00,,,0.00,WeatherLinkWUIModule,2013-02-03 05:21:00,
2013-02-03 00:31:00,12.9,8.4,29.93,SW,224,0.0,0.0,82,0.00,,,0.00,WeatherLinkWUIModule,2013-02-03 05:31:00,
2013-02-03 00:41:00,13.1,8.9,29.93,SW,224,0.0,0.0,83,0.00,,,0.00,WeatherLinkWUIModule,2013-02-03 05:41:00,
2013-02-03 00:51:00,13.5,9.3,29.93,SW,224,0.0,0.0,83,0.00,,,0.00,WeatherLinkWUIModule,2013-02-03 05:51:00,
2013-02-03 01:01:00,13.6,9.4,29.93,SW,224,0.0,0.0,83,0.00,,,0.00,WeatherLinkWUIModule,2013-02-03 06:01:00,
2013-02-03 01:11:00,14.0,10.1,29.93,SW,224,0.0,0.0,84,0.00,,,0.00,WeatherLinkWUIModule,2013-02-03 06:11:00,
2013-02-03 01:21:00,14.1,10.2,29.92,SW,224,0.0,0.0,84,0.00,,,0.00,WeatherLinkWUIModule,2013-02-03 06:21:00,
2013-02-03 01:31:00,14.3,10.4,29.92,SW,224,0.0,0.0,84,0.00,,,0.00,WeatherLinkWUIModule,2013-02-03 06:31:00,
2013-02-03 01:41:00,14.1,10.2,29.92,SW,224,0.0,0.0,84,0.00,,,0.00,WeatherLinkWUIModule,2013-02-03 06:41:00,
2013-02-03 01:51:00,14.0,10.1,29.92,SW,224,0.0,0.0,84,0.00,,,0.00,WeatherLinkWUIModule,2013-02-03 06:51:00,
2013-02-03 02:01:00,13.6,9.7,29.92,SW,224,0.0,0.0,84,0.00,,,0.00,WeatherLinkWUIModule,2013-02-03 07:01:00,
2013-02-03 02:11:00,13.3,9.4,29.92,SW,224,0.0,0.0,84,0.00,,,0.00,WeatherLinkWUIModule,2013-02-03 07:11:00,
2013-02-03 02:21:00,12.8,8.9,29.92,SW,224,0.0,0.0,84,0.00,,,0.00,WeatherLinkWUIModule,2013-02-03 07:21:00,
2013-02-03 02:31:00,12.6,8.7,29.92,SW,224,0.0,0.0,84,0.00,,,0.00,WeatherLinkWUIModule,2013-02-03 07:31:00,
2013-02-03 02:41:00,12.4,8.5,29.92,SW,224,0.0,0.0,84,0.00,,,0.00,WeatherLinkWUIModule,2013-02-03 07:41:00,
2013-02-03 02:51:00,12.4,8.5,29.92,SW,224,0.0,0.0,84,0.00,,,0.00,WeatherLinkWUIModule,2013-02-03 07:51:00,
2013-02-03 03:01:00,12.4,8.5,29.92,SW,224,0.0,0.0,84,0.00,,,0.00,WeatherLinkWUIModule,2013-02-03 08:01:00,
2013-02-03 03:11:00,12.4,8.5,29.92,SW,224,0.0,0.0,84,0.00,,,0.00,WeatherLinkWUIModule,2013-02-03 08:11:00,
2013-02-03 03:21:00,12.4,8.5,29.91,SW,224,0.0,0.0,84,0.00,,,0.00,WeatherLinkWUIModule,2013-02-03 08:21:00,
2013-02-03 03:31:00,12.4,8.5,29.90,SW,224,0.0,0.0,84,0.00,,,0.00,WeatherLinkWUIModule,2013-02-03 08:31:00,
2013-02-03 03:41:00,12.4,8.5,29.90,SW,224,0.0,0.0,84,0.00,,,0.00,WeatherLinkWUIModule,2013-02-03 08:41:00,
2013-02-03 03:51:00,12.4,8.5,29.90,SW,224,0.0,0.0,84,0.00,,,0.00,WeatherLinkWUIModule,2013-02-03 08:51:00,
2013-02-03 04:01:00,12.4,8.5,29.90,SW,224,0.0,0.0,84,0.00,,,0.00,WeatherLinkWUIModule,2013-02-03 09:01:00,
2013-02-03 04:11:00,12.3,8.4,29.90,SW,224,0.0,0.0,84,0.00,,,0.00,WeatherLinkWUIModule,2013-02-03 09:11:00,
2013-02-03 04:21:00,12.3,8.4,29.89,SW,224,0.0,0.0,84,0.00,,,0.00,WeatherLinkWUIModule,2013-02-03 09:21:00,
2013-02-03 04:31:00,12.3,8.4,29.89,SW,224,0.0,0.0,84,0.00,,,0.00,WeatherLinkWUIModule,2013-02-03 09:31:00,
2013-02-03 04:41:00,12.3,8.7,29.89,SW,224,0.0,0.0,85,0.00,,,0.00,WeatherLinkWUIModule,2013-02-03 09:41:00,
2013-02-03 04:51:00,12.3,8.7,29.89,SW,224,0.0,0.0,85,0.00,,,0.00,WeatherLinkWUIModule,2013-02-03 09:51:00,
2013-02-03 05:01:00,12.3,8.7,29.88,SW,224,0.0,0.0,85,0.00,,,0.00,WeatherLinkWUIModule,2013-02-03 10:01:00,
2013-02-03 05:11:00,12.4,8.7,29.88,SW,224,0.0,0.0,85,0.00,,,0.00,WeatherLinkWUIModule,2013-02-03 10:11:00,
2013-02-03 05:21:00,12.6,8.9,29.88,SW,224,0.0,0.0,85,0.00,,,0.00,WeatherLinkWUIModule,2013-02-03 10:21:00,
2013-02-03 05:31:00,12.6,8.9,29.87,SW,224,0.0,0.0,85,0.00,,,0.00,WeatherLinkWUIModule,2013-02-03 10:31:00,
2013-02-03 05:41:00,12.8,9.4,29.87,SW,224,0.0,0.0,86,0.00,,,0.00,WeatherLinkWUIModule,2013-02-03 10:41:00,
2013-02-03 05:51:00,12.9,9.5,29.87,SW,224,0.0,0.0,86,0.00,,,0.00,WeatherLinkWUIModule,2013-02-03 10:51:00,
2013-02-03 06:01:00,13.3,9.9,29.87,SW,224,0.0,0.0,86,0.00,,,0.00,WeatherLinkWUIModule,2013-02-03 11:01:00,
2013-02-03 06:11:00,13.6,10.2,29.87,SW,224,0.0,0.0,86,0.00,,,0.00,WeatherLinkWUIModule,2013-02-03 11:11:00,
2013-02-03 06:21:00,14.0,10.6,29.86,SW,224,0.0,0.0,86,0.00,,,0.00,WeatherLinkWUIModule,2013-02-03 11:21:00,
2013-02-03 06:31:00,14.3,10.9,29.86,SW,224,0.0,0.0,86,0.00,,,0.00,WeatherLinkWUIModule,2013-02-03 11:31:00,
2013-02-03 06:41:00,14.3,10.9,29.86,SW,224,0.0,0.0,86,0.00,,,0.00,WeatherLinkWUIModule,2013-02-03 11:41:00,
2013-02-03 06:51:00,14.1,10.7,29.86,SW,224,0.0,0.0,86,0.00,,,0.00,WeatherLinkWUIModule,2013-02-03 11:51:00,
2013-02-03 07:01:00,13.8,10.4,29.86,SW,224,0.0,0.0,86,0.00,,,0.00,WeatherLinkWUIModule,2013-02-03 12:01:00,
2013-02-03 07:11:00,13.5,10.1,29.86,SW,224,0.0,0.0,86,0.00,,,0.00,WeatherLinkWUIModule,2013-02-03 12:11:00,
2013-02-03 07:21:00,12.9,9.5,29.86,SW,224,0.0,0.0,86,0.00,,,0.00,WeatherLinkWUIModule,2013-02-03 12:21:00,
2013-02-03 07:31:00,12.6,9.2,29.86,SW,224,0.0,0.0,86,0.00,,,0.00,WeatherLinkWUIModule,2013-02-03 12:31:00,
2013-02-03 07:41:00,12.3,8.7,29.86,SW,224,0.0,0.0,85,0.00,,,0.00,WeatherLinkWUIModule,2013-02-03 12:41:00,
2013-02-03 07:51:00,11.9,8.3,29.86,SW,224,0.0,0.0,85,0.00,,,0.00,WeatherLinkWUIModule,2013-02-03 12:51:00,
2013-02-03 08:01:00,11.6,8.0,29.86,SW,224,0.0,0.0,85,0.00,,,0.00,WeatherLinkWUIModule,2013-02-03 13:01:00,
2013-02-03 08:11:00,11.6,8.0,29.86,SW,224,0.0,0.0,85,0.00,,,0.00,WeatherLinkWUIModule,2013-02-03 13:11:00,
2013-02-03 08:21:00,11.7,8.3,29.86,SW,224,0.0,0.0,86,0.00,,,0.00,WeatherLinkWUIModule,2013-02-03 13:21:00,
2013-02-03 08:31:00,12.4,9.0,29.87,SW,224,0.0,0.0,86,0.00,,,0.00,WeatherLinkWUIModule,2013-02-03 13:31:00,
2013-02-03 08:41:00,13.5,10.4,29.87,West,260,0.0,0.0,87,0.00,,,0.00,WeatherLinkWUIModule,2013-02-03 13:41:00,
2013-02-03 08:51:00,14.6,11.4,29.86,WSW,241,4.0,4.0,87,0.00,,,0.00,WeatherLinkWUIModule,2013-02-03 13:51:00,
2013-02-03 09:01:00,15.6,12.4,29.86,WSW,243,0.0,4.0,87,0.00,,,0.00,WeatherLinkWUIModule,2013-02-03 14:01:00,
2013-02-03 09:11:00,16.2,13.0,29.86,WSW,242,1.0,1.0,87,0.00,,,0.00,WeatherLinkWUIModule,2013-02-03 14:11:00,
2013-02-03 09:21:00,16.7,13.5,29.86,WSW,241,4.0,4.0,87,0.00,,,0.00,WeatherLinkWUIModule,2013-02-03 14:21:00,
2013-02-03 09:31:00,17.2,14.0,29.85,SW,236,1.0,7.0,87,0.00,,,0.00,WeatherLinkWUIModule,2013-02-03 14:31:00,
2013-02-03 09:41:00,17.7,14.5,29.85,West,269,0.0,4.0,87,0.00,,,0.00,WeatherLinkWUIModule,2013-02-03 14:41:00,
2013-02-03 09:51:00,18.3,14.8,29.85,NW,309,2.0,2.0,86,0.00,,,0.00,WeatherLinkWUIModule,2013-02-03 14:51:00,
2013-02-03 10:01:00,18.9,14.9,29.84,West,271,4.0,4.0,84,0.00,,,0.00,WeatherLinkWUIModule,2013-02-03 15:01:00,
2013-02-03 10:11:00,19.5,14.3,29.84,West,268,4.0,5.0,80,0.00,,,0.00,WeatherLinkWUIModule,2013-02-03 15:11:00,
2013-02-03 10:21:00,19.9,13.9,29.84,West,276,4.0,5.0,77,0.00,,,0.00,WeatherLinkWUIModule,2013-02-03 15:21:00,
2013-02-03 10:31:00,19.9,13.6,29.84,WSW,246,1.0,7.0,76,0.00,,,0.00,WeatherLinkWUIModule,2013-02-03 15:31:00,
2013-02-03 10:41:00,20.5,13.8,29.84,WNW,297,2.0,4.0,75,0.00,,,0.00,WeatherLinkWUIModule,2013-02-03 15:41:00,
2013-02-03 10:51:00,21.1,13.8,29.84,West,276,2.0,6.0,73,0.00,,,0.00,WeatherLinkWUIModule,2013-02-03 15:51:00,
2013-02-03 11:01:00,21.6,13.6,29.84,NW,308,3.0,4.0,71,0.00,,,0.00,WeatherLinkWUIModule,2013-02-03 16:01:00,
2013-02-03 11:11:00,21.8,13.5,29.84,WNW,302,4.0,4.0,70,0.00,,,0.00,WeatherLinkWUIModule,2013-02-03 16:11:00,
2013-02-03 11:21:00,21.6,12.7,29.84,WNW,297,2.0,2.0,68,0.00,,,0.00,WeatherLinkWUIModule,2013-02-03 16:21:00,
2013-02-03 11:31:00,21.8,12.9,29.82,SSW,203,1.0,2.0,68,0.00,,,0.00,WeatherLinkWUIModule,2013-02-03 16:31:00,
2013-02-03 11:41:00,22.4,12.8,29.82,WNW,295,2.0,7.0,66,0.00,,,0.00,WeatherLinkWUIModule,2013-02-03 16:41:00,
2013-02-03 11:51:00,22.7,12.7,29.82,West,264,2.0,2.0,65,0.00,,,0.00,WeatherLinkWUIModule,2013-02-03 16:51:00,
2013-02-03 12:01:00,22.4,11.7,29.81,West,280,2.0,4.0,63,0.00,,,0.00,WeatherLinkWUIModule,2013-02-03 17:01:00,
2013-02-03 12:11:00,22.2,11.5,29.81,WNW,293,2.0,5.0,63,0.00,,,0.00,WeatherLinkWUIModule,2013-02-03 17:11:00,
2013-02-03 12:21:00,22.5,11.4,29.81,NW,305,5.0,5.0,62,0.00,,,0.00,WeatherLinkWUIModule,2013-02-03 17:21:00,
2013-02-03 12:31:00,22.9,11.1,29.80,WSW,243,1.0,7.0,60,0.00,,,0.00,WeatherLinkWUIModule,2013-02-03 17:31:00,
2013-02-03 12:41:00,23.2,11.0,29.80,WNW,290,2.0,5.0,59,0.00,,,0.00,WeatherLinkWUIModule,2013-02-03 17:41:00,
2013-02-03 12:51:00,23.2,11.0,29.79,NW,312,3.0,6.0,59,0.00,,,0.00,WeatherLinkWUIModule,2013-02-03 17:51:00,
2013-02-03 13:01:00,22.9,11.1,29.79,WNW,285,0.0,5.0,60,0.00,,,0.00,WeatherLinkWUIModule,2013-02-03 18:01:00,
2013-02-03 13:11:00,22.9,11.1,29.79,WSW,254,4.0,4.0,60,0.00,,,0.00,WeatherLinkWUIModule,2013-02-03 18:11:00,
2013-02-03 13:21:00,22.9,11.4,29.79,NW,316,4.0,7.0,61,0.00,,,0.00,WeatherLinkWUIModule,2013-02-03 18:21:00,
2013-02-03 13:31:00,22.7,10.9,29.78,WNW,296,3.0,3.0,60,0.00,,,0.00,WeatherLinkWUIModule,2013-02-03 18:31:00,
2013-02-03 13:41:00,23.0,10.8,29.78,West,276,4.0,7.0,59,0.00,,,0.00,WeatherLinkWUIModule,2013-02-03 18:41:00,
2013-02-03 13:51:00,23.5,11.6,29.77,WNW,300,0.0,5.0,60,0.00,,,0.00,WeatherLinkWUIModule,2013-02-03 18:51:00,
2013-02-03 14:01:00,24.2,12.3,29.77,North,356,0.0,1.0,60,0.00,,,0.00,WeatherLinkWUIModule,2013-02-03 19:01:00,
2013-02-03 14:11:00,23.5,11.3,29.77,WNW,299,0.0,6.0,59,0.00,,,0.00,WeatherLinkWUIModule,2013-02-03 19:11:00,
2013-02-03 14:21:00,24.1,12.2,29.77,WSW,257,3.0,0.0,60,0.00,,,0.00,WeatherLinkWUIModule,2013-02-03 19:21:00,
2013-02-03 14:31:00,23.6,13.2,29.76,ENE,76,1.0,3.0,64,0.00,,,0.00,WeatherLinkWUIModule,2013-02-03 19:31:00,
2013-02-03 14:41:00,23.5,13.8,29.76,ENE,62,2.0,5.0,66,0.00,,,0.00,WeatherLinkWUIModule,2013-02-03 19:41:00,
2013-02-03 14:51:00,23.6,13.9,29.76,NE,47,2.0,3.0,66,0.00,,,0.00,WeatherLinkWUIModule,2013-02-03 19:51:00,
2013-02-03 15:01:00,23.6,13.5,29.77,NE,41,1.0,0.0,65,0.00,,,0.00,WeatherLinkWUIModule,2013-02-03 20:01:00,
2013-02-03 15:11:00,23.5,13.5,29.77,NE,41,0.0,0.0,65,0.00,,,0.00,WeatherLinkWUIModule,2013-02-03 20:11:00,
2013-02-03 15:21:00,23.5,13.5,29.76,ENE,73,0.0,1.0,65,0.00,,,0.00,WeatherLinkWUIModule,2013-02-03 20:21:00,
2013-02-03 15:31:00,23.3,12.9,29.76,ENE,73,1.0,2.0,64,0.00,,,0.00,WeatherLinkWUIModule,2013-02-03 20:31:00,
2013-02-03 15:41:00,23.2,13.2,29.76,ENE,73,1.0,2.0,65,0.00,,,0.00,WeatherLinkWUIModule,2013-02-03 20:41:00,
2013-02-03 15:51:00,23.2,13.2,29.76,ENE,73,0.0,0.0,65,0.00,,,0.00,WeatherLinkWUIModule,2013-02-03 20:51:00,
2013-02-03 16:01:00,23.2,12.8,29.76,ESE,116,2.0,3.0,64,0.00,,,0.00,WeatherLinkWUIModule,2013-02-03 21:01:00,
2013-02-03 16:11:00,23.0,13.0,29.76,ESE,116,0.0,2.0,65,0.00,,,0.00,WeatherLinkWUIModule,2013-02-03 21:11:00,
2013-02-03 16:21:00,22.9,12.9,29.76,ESE,116,0.0,0.0,65,0.00,,,0.00,WeatherLinkWUIModule,2013-02-03 21:21:00,
2013-02-03 16:31:00,22.9,12.9,29.76,ESE,116,0.0,0.0,65,0.00,,,0.00,WeatherLinkWUIModule,2013-02-03 21:31:00,
2013-02-03 16:41:00,22.7,13.0,29.76,ESE,116,0.0,0.0,66,0.00,,,0.00,WeatherLinkWUIModule,2013-02-03 21:41:00,
2013-02-03 16:51:00,22.5,12.8,29.76,ESE,116,0.0,0.0,66,0.00,,,0.00,WeatherLinkWUIModule,2013-02-03 21:51:00,
2013-02-03 17:01:00,22.5,12.8,29.76,ESE,116,0.0,0.0,66,0.00,,,0.00,WeatherLinkWUIModule,2013-02-03 22:01:00,
2013-02-03 17:11:00,22.2,12.9,29.76,ESE,116,0.0,2.0,67,0.00,,,0.00,WeatherLinkWUIModule,2013-02-03 22:11:00,
2013-02-03 17:21:00,22.1,12.8,29.77,ESE,116,0.0,0.0,67,0.00,,,0.00,WeatherLinkWUIModule,2013-02-03 22:21:00,
2013-02-03 17:31:00,22.1,12.8,29.77,ESE,116,0.0,0.0,67,0.00,,,0.00,WeatherLinkWUIModule,2013-02-03 22:31:00,
2013-02-03 17:41:00,21.9,12.6,29.77,ESE,116,0.0,0.0,67,0.00,,,0.00,WeatherLinkWUIModule,2013-02-03 22:41:00,
2013-02-03 17:51:00,21.8,12.9,29.77,ESE,116,0.0,0.0,68,0.00,,,0.00,WeatherLinkWUIModule,2013-02-03 22:51:00,
2013-02-03 18:01:00,21.8,12.9,29.77,ESE,116,2.0,0.0,68,0.00,,,0.00,WeatherLinkWUIModule,2013-02-03 23:01:00,
2013-02-03 18:11:00,21.8,13.2,29.77,ESE,116,1.0,3.0,69,0.00,,,0.00,WeatherLinkWUIModule,2013-02-03 23:11:00,
2013-02-03 18:21:00,21.6,13.3,29.77,WNW,293,2.0,4.0,70,0.00,,,0.00,WeatherLinkWUIModule,2013-02-03 23:21:00,
2013-02-03 18:31:00,21.4,13.8,29.78,WNW,293,0.0,3.0,72,0.00,,,0.00,WeatherLinkWUIModule,2013-02-03 23:31:00,
2013-02-03 18:41:00,21.0,13.7,29.78,WNW,293,0.0,3.0,73,0.00,,,0.00,WeatherLinkWUIModule,2013-02-03 23:41:00,
2013-02-03 18:51:00,20.6,13.6,29.78,WNW,293,0.0,2.0,74,0.00,,,0.00,WeatherLinkWUIModule,2013-02-03 23:51:00,
2013-02-03 19:01:00,20.3,13.9,29.79,WNW,293,1.0,2.0,76,0.00,,,0.00,WeatherLinkWUIModule,2013-02-04 00:01:00,
2013-02-03 19:11:00,20.2,14.1,29.79,WNW,293,2.0,2.0,77,0.00,,,0.00,WeatherLinkWUIModule,2013-02-04 00:11:00,
2013-02-03 19:21:00,20.2,14.1,29.79,NNW,332,1.0,4.0,77,0.00,,,0.00,WeatherLinkWUIModule,2013-02-04 00:21:00,
2013-02-03 19:31:00,20.2,14.4,29.80,West,264,1.0,2.0,78,0.00,,,0.00,WeatherLinkWUIModule,2013-02-04 00:31:00,
2013-02-03 19:41:00,20.2,14.7,29.80,NW,304,2.0,2.0,79,0.00,,,0.00,WeatherLinkWUIModule,2013-02-04 00:41:00,
2013-02-03 19:51:00,20.2,15.0,29.80,NW,312,3.0,10.0,80,0.00,,,0.00,WeatherLinkWUIModule,2013-02-04 00:51:00,
2013-02-03 20:01:00,20.0,14.8,29.81,NW,323,2.0,5.0,80,0.00,,,0.00,WeatherLinkWUIModule,2013-02-04 01:01:00,
2013-02-03 20:11:00,20.0,15.1,29.81,NW,317,5.0,5.0,81,0.00,,,0.00,WeatherLinkWUIModule,2013-02-04 01:11:00,
2013-02-03 20:21:00,19.9,15.3,29.81,WNW,302,3.0,5.0,82,0.00,,,0.00,WeatherLinkWUIModule,2013-02-04 01:21:00,
2013-02-03 20:31:00,19.9,15.3,29.81,West,273,1.0,10.0,82,0.00,,,0.00,WeatherLinkWUIModule,2013-02-04 01:31:00,
2013-02-03 20:41:00,19.7,14.8,29.81,WNW,294,2.0,10.0,81,0.00,,,0.00,WeatherLinkWUIModule,2013-02-04 01:41:00,
2013-02-03 20:51:00,19.7,14.8,29.81,West,273,0.0,6.0,81,0.00,,,0.00,WeatherLinkWUIModule,2013-02-04 01:51:00,
2013-02-03 21:01:00,19.7,14.8,29.81,WNW,298,4.0,6.0,81,0.00,,,0.00,WeatherLinkWUIModule,2013-02-04 02:01:00,
2013-02-03 21:11:00,19.5,14.6,29.81,NNW,330,6.0,6.0,81,0.00,,,0.00,WeatherLinkWUIModule,2013-02-04 02:11:00,
2013-02-03 21:21:00,19.5,14.3,29.81,NNW,327,4.0,12.0,80,0.00,,,0.00,WeatherLinkWUIModule,2013-02-04 02:21:00,
2013-02-03 21:31:00,19.4,13.9,29.82,WNW,290,3.0,7.0,79,0.00,,,0.00,WeatherLinkWUIModule,2013-02-04 02:31:00,
2013-02-03 21:41:00,19.4,13.9,29.82,WNW,300,2.0,5.0,79,0.00,,,0.00,WeatherLinkWUIModule,2013-02-04 02:41:00,
2013-02-03 21:51:00,19.2,13.5,29.82,WNW,288,4.0,11.0,78,0.00,,,0.00,WeatherLinkWUIModule,2013-02-04 02:51:00,
2013-02-03 22:01:00,19.1,13.1,29.81,SW,233,10.0,10.0,77,0.00,,,0.00,WeatherLinkWUIModule,2013-02-04 03:01:00,
2013-02-03 22:11:00,18.8,12.5,29.81,West,278,6.0,10.0,76,0.00,,,0.00,WeatherLinkWUIModule,2013-02-04 03:11:00,
2013-02-03 22:21:00,18.6,12.3,29.81,West,264,3.0,7.0,76,0.00,,,0.00,WeatherLinkWUIModule,2013-02-04 03:21:00,
2013-02-03 22:31:00,18.4,12.1,29.81,West,265,3.0,10.0,76,0.00,,,0.00,WeatherLinkWUIModule,2013-02-04 03:31:00,
2013-02-03 22:41:00,18.3,12.0,29.81,NW,307,7.0,7.0,76,0.00,,,0.00,WeatherLinkWUIModule,2013-02-04 03:41:00,
2013-02-03 22:51:00,18.1,11.8,29.81,NW,311,4.0,7.0,76,0.00,,,0.00,WeatherLinkWUIModule,2013-02-04 03:51:00,
2013-02-03 23:01:00,18.0,11.7,29.81,NW,308,4.0,11.0,76,0.00,,,0.00,WeatherLinkWUIModule,2013-02-04 04:01:00,
2013-02-03 23:11:00,17.8,11.5,29.81,West,266,11.0,14.0,76,0.00,,,0.00,WeatherLinkWUIModule,2013-02-04 04:11:00,
2013-02-03 23:21:00,17.8,11.5,29.82,WNW,288,3.0,11.0,76,0.00,,,0.00,WeatherLinkWUIModule,2013-02-04 04:21:00,
2013-02-03 23:31:00,17.7,11.1,29.82,NW,308,2.0,6.0,75,0.00,,,0.00,WeatherLinkWUIModule,2013-02-04 04:31:00,
2013-02-03 23:41:00,17.7,10.8,29.82,SSE,160,2.0,5.0,74,0.00,,,0.00,WeatherLinkWUIModule,2013-02-04 04:41:00,
2013-02-03 23:51:00,17.7,10.8,29.82,NW,312,3.0,4.0,74,0.00,,,0.00,WeatherLinkWUIModule,2013-02-04 04:51:00,